ORBCOMM FM38 [-]

Last updated on Thu Dec 28 2023 00:02:55 GMT+0000 (Coordinated Universal Time)

1 33060U 08031A 23361.33813298 .00003179 00000+0 47899-3 0 9995 2 33060 48.4424 348.6161 0005841 260.5997 99.4256 14.76647368835143
UTC large
Height (km)
Speed (km/s)
/
Latitude / Longitude
Inclination (degrees)
Orbital Period (minutes)
Azimuth
Elevation
Range (km)
Doppler Factor

Next 0 passes for location: London (51.5072 / 0.1276)

Sorry there are no passes over London.